This is the latest recevied weather packets stored in our database for station/object SR6NWB-11. If no packets are shown the sender has not sent any weather packets the latest 10 day(s).
| Time | Temp. | Humidity | Pressure | Rain* | Wind** | Luminosity | Snow |
|---|---|---|---|---|---|---|---|
| 1777870747 | 11.67° C | 44% | 1018.7 hPa | 0 mm | - | - | - |
| 1777870182 | 11.67° C | 44% | 1018.7 hPa | 0 mm | - | - | - |
| 1777869642 | 11.67° C | 44% | 1018.4 hPa | 0 mm | - | - | - |
| 1777869107 | 11.67° C | 44% | 1018.1 hPa | 0 mm | - | - | - |
| 1777868597 | 11.67° C | 43% | 1018.1 hPa | 0 mm | - | - | - |
| 1777868052 | 12.22° C | 43% | 1018.1 hPa | 0 mm | - | - | - |
| 1777867553 | 12.22° C | 43% | 1018 hPa | 0 mm | - | - | - |
| 1777867047 | 12.22° C | 43% | 1017.9 hPa | 0 mm | - | - | - |
| 1777865938 | 12.22° C | 42% | 1017.9 hPa | 0 mm | - | - | - |
| 1777864862 | 12.22° C | 41% | 1017.8 hPa | 0 mm | - | - | - |
| 1777846794 | 13.89° C | 36% | 1018.4 hPa | 0 mm | - | - | - |
| 1777846278 | 13.89° C | 36% | 1018.6 hPa | 0 mm | - | - | - |
| 1777844212 | 14.44° C | 35% | 1018.8 hPa | 0 mm | - | - | - |
| 1777843680 | 14.44° C | 34% | 1018.8 hPa | 0 mm | - | - | - |
| 1777842662 | 15° C | 33% | 1018.6 hPa | 0 mm | - | - | - |
| 1777839898 | 15° C | 31% | 1018.9 hPa | 0 mm | - | - | - |
| 1777839342 | 15° C | 30% | 1018.9 hPa | 0 mm | - | - | - |
| 1777838773 | 15° C | 29% | 1019 hPa | 0 mm | - | - | - |
| 1777835473 | 15.56° C | 27% | 1019.3 hPa | 0 mm | - | - | - |
| 1777834882 | 16.11° C | 27% | 1019.2 hPa | 0 mm | - | - | - |
| 1777833748 | 16.67° C | 26% | 1019.3 hPa | 0 mm | - | - | - |
| 1777833207 | 16.67° C | 26% | 1019.1 hPa | 0 mm | - | - | - |
| 1777826068 | 19.44° C | 21% | 1019.1 hPa | 0 mm | - | - | - |
| 1777825007 | 20.56° C | 20% | 1019.2 hPa | 0 mm | - | - | - |
| 1777820568 | 22.78° C | 18% | 1019.5 hPa | 0 mm | - | - | - |
* Rain latest hour (hover to see other rain measurements)
** Current wind speed in m/s (hover to see current wind gust speed)